Weather History for PALH - March, 2013

Change the Weather History Date:

Saturday, March 9, 2013

  Actual Average Record
Temperature  
Mean Temperature 37 °F -  
Max Temperature 41 °F 29 °F 44 °F (2008)
Min Temperature 33 °F 15 °F -2 °F (1999)
Degree Days  
Heating Degree Days 28    
Moisture  
Dew Point 27 °F    
Average Humidity 70    
Maximum Humidity 92    
Minimum Humidity 53    
Precipitation  
Precipitation 0.00 in - - ()
Sea Level Pressure  
Sea Level Pressure 29.95 in    
Wind  
Wind Speed 7 mph (South)    
Max Wind Speed 13 mph    
Max Gust Speed 21 mph    
Visibility 10 miles    
Events Rain    
Averages and records for this station are not official NWS values.
T = Trace of Precipitation, MM = Missing Value Source: NWS Daily Summary

Daily Weather History Graph

Daily Weather History Graph

Search for Another Location

Airport or City:

Trip Planner

Search our weather history database for the weather conditions in past years. The results will help you decide how hot, cold, wet, or windy it might be!

Date:

Astronomy

Mar. 09, 2013 Rise Set
Actual Time 7:34 AM AKST 6:47 PM AKST
Civil Twilight 6:51 AM AKST 7:30 PM AKST
Nautical Twilight 6:01 AM AKST 8:20 PM AKST
Astronomical Twilight 5:08 AM AKST 9:14 PM AKST
Moon 6:30 AM AKST (3/9) 4:41 PM AKST (3/9)
Length of Visible Light 12h 39m
Length of Day
11h 13m
Waning Crescent, 5% of the Moon is Illuminated
Mar 9
Waning Crescent
Mar 11
New
Mar 19
First Quarter
Mar 27
Full
Apr 2
Last Quarter

Hourly Weather History & Observations

Time (AKST) Temp. Windchill Dew Point Humidity Pressure Visibility Wind Dir Wind Speed Gust Speed Precip Events Conditions
12:53 AM 36.0 °F 28.0 °F 28.9 °F 76% 29.77 in 10.0 mi South 11.5 mph 20.7 mph N/A   Overcast
1:53 AM 37.0 °F 28.9 °F 28.0 °F 70% 29.79 in 10.0 mi South 12.7 mph 19.6 mph N/A   Overcast
3:53 AM 37.0 °F 29.8 °F 27.0 °F 67% 29.81 in 10.0 mi South 10.4 mph - N/A   Overcast
4:53 AM 37.0 °F 31.0 °F 26.1 °F 65% 29.82 in 10.0 mi South 8.1 mph - N/A   Overcast
5:53 AM 37.0 °F 33.3 °F 26.1 °F 65% 29.84 in 10.0 mi Variable 4.6 mph - N/A   Partly Cloudy
6:53 AM 35.1 °F 31.0 °F 26.1 °F 70% 29.86 in 10.0 mi SSE 4.6 mph - N/A   Overcast
7:53 AM 37.0 °F 33.3 °F 26.1 °F 65% 29.87 in 10.0 mi SSE 4.6 mph - N/A   Overcast
8:53 AM 36.0 °F - 26.1 °F 67% 29.88 in 10.0 mi Calm Calm - N/A   Overcast
9:53 AM 37.0 °F 32.4 °F 26.1 °F 65% 29.89 in 10.0 mi Variable 5.8 mph - N/A   Overcast
10:53 AM 37.0 °F - 26.1 °F 65% 29.92 in 10.0 mi Calm Calm - N/A   Overcast
11:53 AM 39.0 °F - 26.1 °F 60% 29.94 in 10.0 mi Calm Calm - N/A   Overcast
12:53 PM 39.9 °F 37.8 °F 25.0 °F 55% 29.95 in 10.0 mi ESE 3.5 mph - N/A   Overcast
1:53 PM 39.9 °F 35.8 °F 26.1 °F 58% 29.96 in 10.0 mi South 5.8 mph - N/A   Overcast
2:53 PM 41.0 °F 36.4 °F 25.0 °F 53% 29.96 in 10.0 mi South 6.9 mph - N/A   Overcast
3:53 PM 39.9 °F 35.8 °F 26.1 °F 58% 29.96 in 10.0 mi South 5.8 mph - N/A   Overcast
4:53 PM 39.0 °F 34.0 °F 26.1 °F 60% 29.98 in 10.0 mi South 6.9 mph - N/A   Overcast
5:53 PM 39.0 °F 33.4 °F 25.0 °F 57% 30.00 in 10.0 mi South 8.1 mph - N/A   Overcast
6:53 PM 37.0 °F 31.0 °F 28.0 °F 70% 30.01 in 10.0 mi South 8.1 mph - N/A   Overcast
7:53 PM 36.0 °F 30.3 °F 28.0 °F 73% 30.04 in 10.0 mi SSW 6.9 mph - N/A   Overcast
8:53 PM 36.0 °F 32.1 °F 30.9 °F 82% 30.06 in 10.0 mi SW 4.6 mph - N/A   Overcast
9:53 PM 34.0 °F 31.0 °F 30.9 °F 89% 30.07 in 10.0 mi South 3.5 mph - 0.00 in Rain Light Rain
10:53 PM 34.0 °F 28.0 °F 30.9 °F 89% 30.09 in 10.0 mi South 6.9 mph - 0.00 in   Overcast
11:17 PM 33.8 °F 29.6 °F 30.2 °F 87% 30.09 in 10.0 mi South 4.6 mph - N/A   Overcast
11:36 PM 33.8 °F 30.8 °F 30.2 °F 87% 30.09 in 10.0 mi SSW 3.5 mph - N/A   Overcast
11:53 PM 34.0 °F 29.8 °F 32.0 °F 92% 30.09 in 10.0 mi South 4.6 mph - N/A   Overcast